Content
SEND FEEDBACK

Daily
Averages
Monthly
Summary
United States of America

ANN ARBOR, MICHIGAN


Home > North America > United States > Michigan
Elevation: 759 feet     Latitude: 42 17N     Longitude: 083 43W

WEATHER
 
SELECT A DAY
Number of Records: 207,248;   Date Range: 1/1/95 - 10/29/14
 
SHARE

PRINT THIS DATA

[ ← Previous Day ]
WEATHER ALMANAC - APRIL 27, 2013
[ Next Day → ]
[ °C ]   °F
Weather ElementAverageHighLow
Temperature44 °F68 °F (3:53 pm)30.2 °F (5:00 am)
Dewpoint34 °F41 °F (8:53 am)28.9 °F (2:53 pm)
Humidity75.3 %100 % (3:09 am)24 % (2:53 pm)
Barometer30.29 in30.37 in (1:53 am)30.11 in (11:53 pm)
Wind Speed2.4 mph9.2 mph (12:53 pm)
Weather ElementAverage
Visibility5.3 mi
Wind DirectionENE (50.7 °)

Weather ElementTotal
Precipitation---
Heating Degree Days15.9 (Base 65)
Averaged from 41 records on April 27, 2013
WEATHER CONDITIONS BREAKOUT
WIND DIRECTION BREAKOUT
WEATHER BY HOUR - APRIL 27, 2013
[ °C ]   °F
Local TimeTemperatureDewpointHumidityBarometerVisibilityWind DirectionWind SpeedGust SpeedPrecipitationEventsConditions
1:53 AM37.0 °F35.1 °F93 %30.37 in7.0 miCalmClear
2:53 AM35.1 °F34.0 °F96 %30.36 in4.0 miCalmClear
3:09 AM33.8 °F33.8 °F100 %30.34 in1.2 miCalmClear
3:20 AM33.8 °F33.8 °F100 %30.34 in0.5 miCalmFogFog
3:29 AM35.6 °F35.6 °F100 %30.34 in1.5 miCalmClear
3:31 AM35.6 °F35.6 °F100 %30.34 in3.0 miCalmClear
3:45 AM35.6 °F33.8 °F93 %30.34 in1.8 miCalmClear
3:50 AM33.8 °F33.8 °F100 %30.34 in0.8 miCalmClear
3:53 AM34.0 °F33.1 °F96 %30.35 in0.8 miCalmClear
3:59 AM33.8 °F33.8 °F100 %30.33 in1.5 miCalmClear
4:01 AM33.8 °F32.0 °F93 %30.34 in3.0 miCalmClear
4:49 AM33.8 °F33.8 °F100 %30.33 in2.0 miCalmClear
4:53 AM34.0 °F33.1 °F96 %30.35 in2.5 miCalmClear
5:00 AM30.2 °F30.2 °F100 %30.33 in3.0 miCalmClear
5:53 AM30.9 °F30.0 °F96 %30.34 in5.0 miCalmClear
6:04 AM30.2 °F30.2 °F100 %30.33 in1.8 miCalmClear
6:06 AM30.2 °F30.2 °F100 %30.33 in0.8 miCalmClear
6:53 AM33.1 °F32.0 °F96 %30.33 in1.5 miCalmClear
6:55 AM33.8 °F32.0 °F93 %30.32 in4.0 miCalmClear
7:06 AM30.2 °F30.2 °F100 %30.32 in0.8 miCalmClear
7:22 AM32.0 °F30.2 °F93 %30.32 in1.0 miCalmClear
7:28 AM33.8 °F32.0 °F93 %30.33 in3.0 miCalmClear
7:40 AM35.6 °F33.8 °F93 %30.33 in2.0 miCalmClear
7:50 AM37.4 °F35.6 °F93 %30.34 in1.5 miCalmClear
7:53 AM37.0 °F36.0 °F96 %30.35 in6.0 miCalmClear
8:53 AM48.9 °F41.0 °F74 %30.36 in6.0 miSSW (200°)3.5 mphHaze
9:53 AM55.0 °F37.9 °F53 %30.34 in10.0 miVariable3.5 mphClear
10:53 AM59.0 °F35.1 °F41 %30.33 in10.0 miSouth (190°)8.1 mphClear
11:53 AM62.1 °F36.0 °F38 %30.30 in10.0 miVariable4.6 mphClear
12:53 PM64.0 °F35.1 °F34 %30.28 in10.0 miSSE (160°)9.2 mphClear
1:53 PM66.0 °F35.1 °F32 %30.27 in10.0 miSouth (180°)6.9 mphClear
2:53 PM66.9 °F28.9 °F24 %30.25 in10.0 miSouth (190°)9.2 mphClear
3:53 PM68.0 °F36.0 °F31 %30.22 in10.0 miSSE (150°)9.2 mphClear
4:53 PM68.0 °F36.0 °F31 %30.20 in10.0 miESE (120°)9.2 mphClear
5:53 PM66.9 °F36.0 °F32 %30.19 in10.0 miSE (130°)6.9 mphClear
6:53 PM64.9 °F36.0 °F34 %30.17 in10.0 miSE (140°)8.1 mphClear
7:53 PM62.1 °F35.1 °F37 %30.16 in10.0 miSE (130°)6.9 mphClear
8:53 PM57.0 °F35.1 °F44 %30.14 in10.0 miSSE (150°)3.5 mphClear
9:53 PM53.1 °F35.1 °F50 %30.15 in10.0 miSouth (170°)3.5 mphClear
10:53 PM51.1 °F35.1 °F54 %30.14 in10.0 miESE (110°)3.5 mphClear
11:53 PM48.9 °F35.1 °F59 %30.11 in10.0 miENE (60°)3.5 mphClear
Hourly data recorded from KARB, located miles away from Ann Arbor, Michigan







STORIES FROM OUR PARTNERS